DW8501 Madrid ES current weather conditions

sailwx.info

Wind from 046 at 9 knots gusting 13

Air temperature 21.7° C
Dewpoint 2.4° C

Last reported at 2014-Oct-23 17:45 UTC.
Time now 2014-Oct-23 18:40 UTC

Location: N 40°27' W 003°35'.
View on Google Maps.

See reports from other nearby stations

  
Tides and Currents Weather Stations Pressure Air Temp Water Temp Dewpoint Dewpoint Depression Visibility Wind Speed Wind Dir Waves Ship Positions
date/time (UTC)wind fromknots sea level pressurealtimeterstation pressurevisibilityair tempwater tempwave heightnotes
2014-Oct-23 17:45 046 9 gusting 13 21.7
2014-Oct-23 17:40 045 10 gusting 14 22.2
2014-Oct-23 17:35 053 8 gusting 15 22.2
2014-Oct-23 17:30 053 7 gusting 15 22.2
2014-Oct-23 17:25 044 10 gusting 15 22.2
2014-Oct-23 17:20 044 6 gusting 12 22.2
2014-Oct-23 17:15 050 9 gusting 12 22.8
2014-Oct-23 17:10 051 9 gusting 10 22.8
2014-Oct-23 17:05 045 6 gusting 9 22.8
2014-Oct-23 17:00 042 6 gusting 14 22.8
2014-Oct-23 16:55 046 8 gusting 14 23.3
2014-Oct-23 16:50 051 9 gusting 14 23.3
2014-Oct-23 16:45 049 9 gusting 15 23.3
2014-Oct-23 16:40 045 10 gusting 15 23.3
2014-Oct-23 16:35 049 12 gusting 15 23.3
2014-Oct-23 16:30 050 8 gusting 15 23.9
2014-Oct-23 16:25 043 9 gusting 14 23.9
2014-Oct-23 16:20 036 8 gusting 14 23.9
2014-Oct-23 16:15 041 8 gusting 14 23.9
2014-Oct-23 16:10 046 11 gusting 13 24.4
2014-Oct-23 16:05 012 10 gusting 13 24.4
2014-Oct-23 16:00 010 10 gusting 18 24.4
2014-Oct-23 15:55 046 9 gusting 18 24.4
2014-Oct-23 15:50 044 14 gusting 18 24.4
2014-Oct-23 15:45 043 8 gusting 13 25.0
2014-Oct-23 15:40 042 2 gusting 8 25.0
2014-Oct-23 15:35 030 6 gusting 10 25.6
2014-Oct-23 15:30 015 6 gusting 10 25.6
2014-Oct-23 15:25 345 6 gusting 7 25.6
2014-Oct-23 15:20 348 6 gusting 7 26.7
2014-Oct-23 15:15 020 4 gusting 6 26.7
2014-Oct-23 15:10 354 1 gusting 6 26.1
2014-Oct-23 15:05 344 3 gusting 5 26.1
2014-Oct-23 15:00 358 2 gusting 6 26.1
2014-Oct-23 14:55 006 1 gusting 6 26.1
2014-Oct-23 14:50 012 3 gusting 8 26.1
2014-Oct-23 14:45 018 4 gusting 8 26.1
2014-Oct-23 14:40 010 4 gusting 6 26.7
2014-Oct-23 14:35 335 5 gusting 6 26.7
2014-Oct-23 14:30 283 1 gusting 3 27.8
2014-Oct-23 14:25 303 1 gusting 3 27.8
2014-Oct-23 14:20 324 0 gusting 4 28.3
2014-Oct-23 14:15 27.8
2014-Oct-23 14:10 087 1 gusting 3 27.8
2014-Oct-23 14:05 056 1 gusting 3 27.2
2014-Oct-23 14:00 036 1 gusting 6 27.2
2014-Oct-23 13:55 062 1 gusting 6 26.1
2014-Oct-23 13:50 072 1 gusting 6 25.6
2014-Oct-23 13:45 021 3 gusting 6 25.6
2014-Oct-23 13:40 353 1 gusting 5 25.6
2014-Oct-23 13:35 359 2 gusting 5 26.1
2014-Oct-23 13:30 007 0 gusting 6 26.1
2014-Oct-23 13:25 006 3 gusting 6 27.2
2014-Oct-23 13:20 271 1 gusting 3 27.8
2014-Oct-23 13:15 347 0 gusting 6 26.7
2014-Oct-23 13:10 011 1 gusting 6 25.6
2014-Oct-23 13:05 039 3 gusting 4 26.1
2014-Oct-23 13:00 061 1 gusting 4 26.1
2014-Oct-23 12:55 024 1 gusting 4 27.2
2014-Oct-23 12:50 26.7
2014-Oct-23 12:45 342 0 gusting 3 26.1
2014-Oct-23 12:40 336 0 gusting 5 25.6
2014-Oct-23 12:35 324 0 gusting 5 24.4
2014-Oct-23 12:30 309 1 gusting 3 25.0
2014-Oct-23 12:25 331 2 gusting 3 25.6
2014-Oct-23 12:20 349 0 gusting 5 25.6
2014-Oct-23 12:15 341 1 gusting 5 26.7
2014-Oct-23 12:10 270 0 gusting 1 26.1
2014-Oct-23 12:05 260 1 gusting 3 24.4
2014-Oct-23 12:00 271 1 gusting 3 24.4
2014-Oct-23 11:55 24.4
2014-Oct-23 11:50 316 1 gusting 3 24.4
2014-Oct-23 11:45 291 0 gusting 3 25.0
2014-Oct-23 11:40 283 0 gusting 3 25.0
2014-Oct-23 11:35 320 0 gusting 2 26.1
2014-Oct-23 11:30 25.0
2014-Oct-23 11:25 323 1 gusting 2 23.9
2014-Oct-23 11:20 270 1 gusting 3 22.8
2014-Oct-23 11:15 222 1 gusting 3 22.8
2014-Oct-23 11:10 236 1 gusting 3 22.2
2014-Oct-23 11:05 263 1 gusting 3 22.2
2014-Oct-23 11:00 267 1 gusting 2 23.3
2014-Oct-23 10:55 154 0 gusting 1 23.9
2014-Oct-23 10:50 22.8
2014-Oct-23 10:45 041 0 gusting 3 22.2
2014-Oct-23 10:40 120 0 gusting 3 22.2
2014-Oct-23 10:35 21.7
2014-Oct-23 10:30 116 0 gusting 3 21.1
2014-Oct-23 10:25 115 0 gusting 3 21.1
2014-Oct-23 10:20 21.1
2014-Oct-23 10:15 121 0 gusting 2 20.6
2014-Oct-23 10:10 126 1 gusting 2 20.6
2014-Oct-23 10:05 139 1 gusting 2 19.4
2014-Oct-23 10:00 138 1 gusting 3 19.4
2014-Oct-23 09:55 127 1 gusting 3 18.9
2014-Oct-23 09:50 120 1 gusting 3 19.4
2014-Oct-23 09:45 115 1 gusting 2 19.4
2014-Oct-23 09:40 117 1 gusting 3 18.9
2014-Oct-23 09:35 121 1 gusting 3 18.3
2014-Oct-23 09:30 119 1 gusting 3 17.8
2014-Oct-23 09:25 098 1 gusting 3 17.8
2014-Oct-23 09:20 077 1 gusting 3 18.9
2014-Oct-23 09:15 086 1 gusting 2 19.4
2014-Oct-23 09:10 18.9
2014-Oct-23 09:05 16.7
2014-Oct-23 09:00 097 1 gusting 3 16.1
2014-Oct-23 08:55 096 1 gusting 3 15.6
2014-Oct-23 08:50 097 2 gusting 3 16.1
2014-Oct-23 08:45 109 1 gusting 3 16.1
2014-Oct-23 08:40 116 1 gusting 2 16.1
2014-Oct-23 08:35 115 0 gusting 3 15.6
2014-Oct-23 08:30 112 0 gusting 3 15.0
2014-Oct-23 08:25 122 1 gusting 3 15.0
2014-Oct-23 08:20 128 2 gusting 3 15.0
2014-Oct-23 08:15 125 1 gusting 3 15.0
2014-Oct-23 08:10 132 1 gusting 2 15.6
2014-Oct-23 08:05 129 1 gusting 2 16.7
2014-Oct-23 08:00 114 1 gusting 2 16.7
2014-Oct-23 07:55 16.1
2014-Oct-23 07:50 14.4
2014-Oct-23 07:45 13.3
2014-Oct-23 07:40 111 0 gusting 3 12.8
2014-Oct-23 07:35 106 1 gusting 3 12.2
2014-Oct-23 07:30 110 0 gusting 2 12.2
2014-Oct-23 07:25 111 1 gusting 2 11.7
2014-Oct-23 07:20 135 0 gusting 1 11.7
2014-Oct-23 07:15 11.7
2014-Oct-23 07:10 11.1
2014-Oct-23 07:05 11.1
2014-Oct-23 07:00 11.1
2014-Oct-23 06:55 11.1
2014-Oct-23 06:50 10.0
2014-Oct-23 06:45 339 0 gusting 1 9.4
2014-Oct-23 06:40 019 0 gusting 1 8.9
2014-Oct-23 06:35 8.9
2014-Oct-23 06:30 8.9
2014-Oct-23 06:25 8.9
2014-Oct-23 06:20 105 0 gusting 1 8.9
2014-Oct-23 06:15 098 0 gusting 1 8.9
2014-Oct-23 06:10 8.9
2014-Oct-23 06:05 9.4
2014-Oct-23 06:00 9.4
2014-Oct-23 05:55 102 1 gusting 2 9.4
2014-Oct-23 05:50 028 0 gusting 1 8.9
2014-Oct-23 05:45 8.9
2014-Oct-23 05:40 9.4
2014-Oct-23 05:35 9.4
2014-Oct-23 05:30 186 0 gusting 1 9.4
2014-Oct-23 05:25 9.4
2014-Oct-23 05:20 242 0 gusting 3 9.4
2014-Oct-23 05:15 255 0 gusting 3 9.4
2014-Oct-23 05:10 239 1 gusting 2 9.4
2014-Oct-23 05:05 223 0 gusting 2 9.4
2014-Oct-23 05:00 205 0 gusting 2 9.4
2014-Oct-23 04:55 187 0 gusting 2 10.0
2014-Oct-23 04:50 174 1 gusting 3 10.0
2014-Oct-23 04:45 176 1 gusting 3 10.0
2014-Oct-23 04:40 185 2 gusting 3 10.0
2014-Oct-23 04:35 185 1 gusting 3 10.0
2014-Oct-23 04:30 189 1 gusting 3 10.0
2014-Oct-23 04:25 198 2 gusting 3 9.4
2014-Oct-23 04:20 212 0 gusting 1 9.4
2014-Oct-23 04:15 9.4
2014-Oct-23 04:10 9.4
2014-Oct-23 04:05 230 0 gusting 1 10.0
2014-Oct-23 04:00 229 0 gusting 1 10.0
2014-Oct-23 03:55 200 1 gusting 3 10.0
2014-Oct-23 03:50 189 0 gusting 3 10.6
2014-Oct-23 03:45 204 1 gusting 2 10.6
2014-Oct-23 03:40 196 1 gusting 2 10.6
2014-Oct-23 03:35 190 1 gusting 2 10.6
2014-Oct-23 03:30 198 1 gusting 1 10.6
2014-Oct-23 03:25 190 1 gusting 1 10.6
2014-Oct-23 03:20 197 0 gusting 1 10.6
2014-Oct-23 03:15 220 0 gusting 2 10.6
2014-Oct-23 03:10 220 1 gusting 3 10.6
2014-Oct-23 03:05 208 1 gusting 3 10.6
2014-Oct-23 03:00 238 1 gusting 3 10.6
2014-Oct-23 02:55 259 0 gusting 3 10.6
2014-Oct-23 02:50 259 2 gusting 3 10.0
2014-Oct-23 02:45 253 1 gusting 3 10.0
2014-Oct-23 02:40 245 1 gusting 2 10.6
2014-Oct-23 02:35 238 0 gusting 2 10.6
2014-Oct-23 02:30 253 0 gusting 2 10.6
2014-Oct-23 02:25 274 0 gusting 2 10.6
2014-Oct-23 02:20 276 1 gusting 2 10.6
2014-Oct-23 02:15 128 1 gusting 3 10.6
2014-Oct-23 02:10 138 1 gusting 3 11.1
2014-Oct-23 02:05 115 1 gusting 3 11.1
2014-Oct-23 02:00 094 1 gusting 3 11.1
2014-Oct-23 01:55 111 1 gusting 3 11.1
2014-Oct-23 01:50 131 1 gusting 3 11.1
2014-Oct-23 01:45 134 1 gusting 3 11.1
2014-Oct-23 01:40 120 0 gusting 3 11.7
2014-Oct-23 01:35 126 1 gusting 3 11.7
2014-Oct-23 01:30 156 0 gusting 2 11.7
2014-Oct-23 01:25 162 1 gusting 1 11.7
2014-Oct-23 01:20 140 0 gusting 1 11.7
2014-Oct-23 01:15 027 0 gusting 2 11.7
2014-Oct-23 01:10 041 0 gusting 3 11.7
2014-Oct-23 01:05 085 1 gusting 3 11.7
2014-Oct-23 01:00 106 1 gusting 3 12.2
2014-Oct-23 00:55 111 1 gusting 4 12.2
2014-Oct-23 00:50 104 2 gusting 4 12.8
2014-Oct-23 00:45 126 1 gusting 2 12.8
2014-Oct-23 00:40 165 1 gusting 2 12.8
2014-Oct-23 00:35 179 0 gusting 2 12.2
2014-Oct-23 00:30 203 1 gusting 1 12.2
2014-Oct-23 00:25 227 1 gusting 1 11.7
2014-Oct-23 00:20 213 1 gusting 1 11.7
2014-Oct-23 00:15 12.2
2014-Oct-23 00:10 204 0 gusting 1 12.2
2014-Oct-23 00:05 12.2
2014-Oct-23 00:00 12.2
2014-Oct-22 23:55 185 0 gusting 2 12.8
2014-Oct-22 23:50 182 0 gusting 2 12.8
2014-Oct-22 23:45 183 0 gusting 2 13.3
2014-Oct-22 23:40 182 0 gusting 2 13.3
2014-Oct-22 23:35 187 1 gusting 2 13.3
2014-Oct-22 23:30 184 1 gusting 2 13.9
2014-Oct-22 23:25 169 1 gusting 1 13.9
2014-Oct-22 23:20 138 0 gusting 2 14.4
2014-Oct-22 23:15 132 0 gusting 3 14.4
2014-Oct-22 23:10 139 1 gusting 3 14.4
2014-Oct-22 23:05 130 1 gusting 2 14.4
2014-Oct-22 23:00 14.4
2014-Oct-22 22:55 14.4
2014-Oct-22 22:50 052 1 gusting 3 14.4
2014-Oct-22 22:45 077 1 gusting 5 14.4
2014-Oct-22 22:40 090 1 gusting 5 14.4
2014-Oct-22 22:35 078 2 gusting 5 15.0
2014-Oct-22 22:30 063 1 gusting 4 14.4
2014-Oct-22 22:25 070 1 gusting 4 14.4
2014-Oct-22 22:20 270 0 gusting 1 14.4
2014-Oct-22 22:15 14.4
2014-Oct-22 22:10 14.4
2014-Oct-22 22:05 130 0 gusting 1 14.4
2014-Oct-22 22:00 129 0 gusting 1 14.4
2014-Oct-22 21:55 14.4
2014-Oct-22 21:50 14.4
2014-Oct-22 21:45 192 0 gusting 3 15.0
2014-Oct-22 21:40 15.6
2014-Oct-22 21:35 150 1 gusting 2 16.1
2014-Oct-22 21:30 117 1 gusting 5 16.1
2014-Oct-22 21:25 100 0 gusting 7 16.1
2014-Oct-22 21:20 091 3 gusting 9 16.7
2014-Oct-22 21:15 079 5 gusting 12 16.7
2014-Oct-22 21:10 078 5 gusting 12 16.7
2014-Oct-22 21:05 095 6 gusting 7 16.7
2014-Oct-22 21:00 125 3 gusting 6 16.7
2014-Oct-22 20:55 125 3 gusting 6 16.7
2014-Oct-22 20:50 079 1 gusting 9 17.2
2014-Oct-22 20:45 065 5 gusting 13 17.2
2014-Oct-22 20:40 057 7 gusting 13 17.8
2014-Oct-22 20:35 058 9 gusting 13 17.8
2014-Oct-22 20:30 046 10 gusting 14 17.2
2014-Oct-22 20:25 046 7 gusting 14 17.2
2014-Oct-22 20:20 049 9 gusting 14 17.8
2014-Oct-22 20:15 040 9 gusting 13 17.8
2014-Oct-22 20:10 043 10 gusting 13 17.8
2014-Oct-22 20:05 052 8 gusting 13 17.8
2014-Oct-22 20:00 051 8 gusting 13 17.8
2014-Oct-22 19:55 049 7 gusting 13 17.8
2014-Oct-22 19:50 051 8 gusting 13 17.8
2014-Oct-22 19:45 042 6 gusting 11 18.3
2014-Oct-22 19:40 043 7 gusting 13 18.3
2014-Oct-22 19:35 046 7 gusting 13 18.3
2014-Oct-22 19:30 049 9 gusting 13 18.3
2014-Oct-22 19:25 054 10 gusting 13 18.3
2014-Oct-22 19:20 046 7 gusting 13 18.9
2014-Oct-22 19:15 041 8 gusting 13 18.9
2014-Oct-22 19:10 044 8 gusting 13 18.9
2014-Oct-22 19:05 045 6 gusting 13 18.9
2014-Oct-22 19:00 056 8 gusting 14 18.9
2014-Oct-22 18:55 055 9 gusting 14 19.4
2014-Oct-22 18:50 040 9 gusting 14 19.4
2014-Oct-22 18:45 045 12 gusting 14 19.4
2014-Oct-22 18:40 049 8 gusting 15 19.4
2014-Oct-22 18:35 041 7 gusting 15 19.4
2014-Oct-22 18:30 047 9 gusting 14 19.4
2014-Oct-22 18:25 053 9 gusting 14 20.0
2014-Oct-22 18:20 049 11 gusting 14 20.0
2014-Oct-22 18:15 052 9 gusting 13 20.0
2014-Oct-22 18:10 050 8 gusting 13 20.0
2014-Oct-22 18:05 050 8 gusting 10 20.6
2014-Oct-22 18:00 054 8 gusting 13 20.6
2014-Oct-22 17:55 054 6 gusting 13 20.6
2014-Oct-22 17:50 043 6 gusting 9 20.6
2014-Oct-22 17:45 036 6 gusting 11 21.1
2014-Oct-22 17:40 037 6 gusting 12 21.1
2014-Oct-22 17:35 040 6 gusting 12 21.1
2014-Oct-22 17:30 044 9 gusting 12 21.7
2014-Oct-22 17:25 042 9 gusting 11 21.7
2014-Oct-22 17:20 043 8 gusting 11 21.7
2014-Oct-22 17:15 044 6 gusting 11 22.2
2014-Oct-22 17:10 041 6 gusting 11 22.8
2014-Oct-22 17:05 045 5 gusting 9 22.8
2014-Oct-22 17:00 048 6 gusting 13 23.3
2014-Oct-22 16:55 044 6 gusting 13 23.3
2014-Oct-22 16:50 063 8 gusting 13 23.3
2014-Oct-22 16:45 055 6 gusting 14 23.3
2014-Oct-22 16:40 037 11 gusting 14 23.3
2014-Oct-22 16:35 055 8 gusting 14 23.9
2014-Oct-22 16:30 056 7 gusting 14 23.3
2014-Oct-22 16:25 059 11 gusting 14 23.3
2014-Oct-22 16:20 054 7 gusting 13 23.9
2014-Oct-22 16:15 047 10 gusting 14 23.9
2014-Oct-22 16:10 049 9 gusting 14 23.9
2014-Oct-22 16:05 047 12 gusting 14 23.9
2014-Oct-22 16:00 044 12 gusting 16 23.9
2014-Oct-22 15:55 043 13 gusting 16 23.9
2014-Oct-22 15:50 047 11 gusting 15 23.9
2014-Oct-22 15:45 046 13 gusting 14 24.4
2014-Oct-22 15:40 047 9 gusting 14 24.4
2014-Oct-22 15:35 056 9 gusting 13 24.4
2014-Oct-22 15:30 049 9 gusting 13 24.4
2014-Oct-22 15:25 034 9 gusting 13 24.4
2014-Oct-22 15:20 033 8 gusting 13 24.4
2014-Oct-22 15:15 035 9 gusting 14 24.4
2014-Oct-22 15:10 038 10 gusting 17 24.4
2014-Oct-22 15:05 050 9 gusting 17 24.4
2014-Oct-22 15:00 053 13 gusting 17 24.4
2014-Oct-22 14:55 051 10 gusting 17 24.4
2014-Oct-22 14:50 043 11 gusting 18 24.4
2014-Oct-22 14:45 037 10 gusting 19 24.4
2014-Oct-22 14:40 040 13 gusting 19 25.0
2014-Oct-22 14:35 038 10 gusting 16 25.0
2014-Oct-22 14:30 039 11 gusting 15 25.0
2014-Oct-22 14:25 037 5 gusting 13 25.0
2014-Oct-22 14:20 027 6 gusting 13 25.0
2014-Oct-22 14:15 018 9 gusting 13 25.0
2014-Oct-22 14:10 030 11 gusting 13 25.0
2014-Oct-22 14:05 042 6 gusting 11 25.0
2014-Oct-22 14:00 015 6 gusting 11 25.0
2014-Oct-22 13:55 345 6 gusting 8 25.6
2014-Oct-22 13:50 014 3 gusting 8 25.6
2014-Oct-22 13:45 051 3 gusting 9 25.0
2014-Oct-22 13:40 029 5 gusting 13 24.4
2014-Oct-22 13:35 029 6 gusting 13 24.4
2014-Oct-22 13:30 054 7 gusting 13 24.4
2014-Oct-22 13:25 060 6 gusting 7 25.0
2014-Oct-22 13:20 054 1 gusting 9 25.0
2014-Oct-22 13:15 046 5 gusting 9 24.4
2014-Oct-22 13:10 051 3 gusting 9 24.4
2014-Oct-22 13:05 087 7 gusting 9 24.4
2014-Oct-22 13:00 113 5 gusting 8 25.0
2014-Oct-22 12:55 119 3 gusting 6 26.1
2014-Oct-22 12:50 096 1 gusting 3 26.1
2014-Oct-22 12:45 054 0 gusting 6 25.6
2014-Oct-22 12:40 079 1 gusting 6 24.4
2014-Oct-22 12:35 078 3 gusting 6 23.9
2014-Oct-22 12:30 061 6 gusting 6 23.9
2014-Oct-22 12:25 086 3 gusting 6 23.9
2014-Oct-22 12:20 114 3 gusting 6 23.9
2014-Oct-22 12:15 115 2 gusting 7 24.4
2014-Oct-22 12:10 145 2 gusting 7 24.4
2014-Oct-22 12:05 148 1 gusting 4 23.9
2014-Oct-22 12:00 103 1 gusting 5 23.9
2014-Oct-22 11:55 100 1 gusting 6 23.3
2014-Oct-22 11:50 127 3 gusting 7 22.8
2014-Oct-22 11:45 118 2 gusting 7 22.8
2014-Oct-22 11:40 079 4 gusting 7 22.8
2014-Oct-22 11:35 071 3 gusting 6 22.8
2014-Oct-22 11:30 061 3 gusting 6 22.2
2014-Oct-22 11:25 064 1 gusting 6 21.1
2014-Oct-22 11:20 071 2 gusting 8 20.6
2014-Oct-22 11:15 046 5 gusting 8 20.0
2014-Oct-22 11:10 043 5 gusting 8 20.0
2014-Oct-22 11:05 055 5 gusting 9 20.0
2014-Oct-22 11:00 048 4 gusting 9 20.6
2014-Oct-22 10:55 029 2 gusting 6 21.1
2014-Oct-22 10:50 059 1 gusting 7 20.0
2014-Oct-22 10:45 077 4 gusting 9 19.4
2014-Oct-22 10:40 079 3 gusting 9 19.4
2014-Oct-22 10:35 071 3 gusting 8 18.9
2014-Oct-22 10:30 060 1 gusting 9 18.9
2014-Oct-22 10:25 059 6 gusting 9 18.3
2014-Oct-22 10:20 058 6 gusting 9 18.9
2014-Oct-22 10:15 074 5 gusting 9 18.9
2014-Oct-22 10:10 082 5 gusting 6 18.9
2014-Oct-22 10:05 079 4 gusting 8 18.3
2014-Oct-22 10:00 083 5 gusting 8 18.3
2014-Oct-22 09:55 079 5 gusting 8 18.3
2014-Oct-22 09:50 088 5 gusting 6 18.9
2014-Oct-22 09:45 080 3 gusting 6 18.3
2014-Oct-22 09:40 069 3 gusting 6 18.9
2014-Oct-22 09:35 086 4 gusting 6 19.4
2014-Oct-22 09:30 123 2 gusting 5 20.0
2014-Oct-22 09:25 129 0 gusting 3 19.4
2014-Oct-22 09:20 117 1 gusting 5 19.4
2014-Oct-22 09:15 112 2 gusting 6 18.9
2014-Oct-22 09:10 091 3 gusting 6 18.3
2014-Oct-22 09:05 080 2 gusting 6 18.3
2014-Oct-22 09:00 083 3 gusting 6 18.3
2014-Oct-22 08:55 083 3 gusting 5 18.3
2014-Oct-22 08:50 076 1 gusting 5 18.3
2014-Oct-22 08:45 073 3 gusting 5 17.8
2014-Oct-22 08:40 078 1 gusting 4 17.8
2014-Oct-22 08:35 086 3 gusting 4 17.8
2014-Oct-22 08:30 092 1 gusting 3 18.3
2014-Oct-22 08:25 091 1 gusting 3 18.3
2014-Oct-22 08:20 17.8
2014-Oct-22 08:15 094 1 gusting 3 17.8
2014-Oct-22 08:10 096 1 gusting 2 18.3
2014-Oct-22 08:05 18.3
2014-Oct-22 08:00 18.3
2014-Oct-22 07:55 17.8
2014-Oct-22 07:50 16.7
2014-Oct-22 07:45 219 1 gusting 3 16.1
2014-Oct-22 07:40 222 1 gusting 2 16.7
2014-Oct-22 07:35 192 0 gusting 1 16.7
2014-Oct-22 07:30 16.1
2014-Oct-22 07:25 15.6
2014-Oct-22 07:20 238 0 gusting 1 15.6
2014-Oct-22 07:15 15.6
2014-Oct-22 07:10 15.6
2014-Oct-22 07:05 130 0 gusting 2 15.6
2014-Oct-22 07:00 117 1 gusting 3 15.6
2014-Oct-22 06:55 094 1 gusting 5 15.0
2014-Oct-22 06:50 092 1 gusting 5 15.0
2014-Oct-22 06:45 093 3 gusting 5 15.0
2014-Oct-22 06:40 091 3 gusting 6 15.0
2014-Oct-22 06:35 093 2 gusting 6 15.0
2014-Oct-22 06:30 105 3 gusting 6 15.6
2014-Oct-22 06:25 101 3 gusting 5 15.0
2014-Oct-22 06:20 094 2 gusting 6 15.0
2014-Oct-22 06:15 110 3 gusting 6 15.6
2014-Oct-22 06:10 131 2 gusting 6 15.6
2014-Oct-22 06:05 158 2 gusting 3 15.6
2014-Oct-22 06:00 173 2 gusting 3 15.6
2014-Oct-22 05:55 138 1 gusting 3 16.1
2014-Oct-22 05:50 152 1 gusting 6 16.7
2014-Oct-22 05:45 183 1 gusting 6 16.7
2014-Oct-22 05:40 211 1 gusting 5 16.7
2014-Oct-22 05:35 207 1 gusting 5 16.1
2014-Oct-22 05:30 16.1
2014-Oct-22 05:25 202 1 gusting 3 15.6
2014-Oct-22 05:20 237 1 gusting 1 15.6
2014-Oct-22 05:15 15.6
2014-Oct-22 05:10 186 0 gusting 2 16.1
2014-Oct-22 05:05 190 0 gusting 1 16.1
2014-Oct-22 05:00 189 0 gusting 2 16.1
2014-Oct-22 04:55 192 1 gusting 3 16.1
2014-Oct-22 04:50 196 0 gusting 3 16.7
2014-Oct-22 04:45 226 1 gusting 3 16.7
2014-Oct-22 04:40 311 0 gusting 2 17.2
2014-Oct-22 04:35 17.2
2014-Oct-22 04:30 329 0 gusting 3 17.2
2014-Oct-22 04:25 341 2 gusting 4 17.2
2014-Oct-22 04:20 354 1 gusting 4 17.2
2014-Oct-22 04:15 344 3 gusting 4 17.2
2014-Oct-22 04:10 323 1 gusting 3 17.2
2014-Oct-22 04:05 314 2 gusting 3 17.2
2014-Oct-22 04:00 305 2 gusting 3 17.2
2014-Oct-22 03:55 299 1 gusting 3 17.2
2014-Oct-22 03:50 293 1 gusting 3 17.2
2014-Oct-22 03:45 283 1 gusting 3 17.2
2014-Oct-22 03:40 290 3 gusting 3 17.2
2014-Oct-22 03:35 17.2
2014-Oct-22 03:30 294 1 gusting 6 17.2
2014-Oct-22 03:25 298 1 gusting 3 17.2
2014-Oct-22 03:20 281 2 gusting 3 17.2
2014-Oct-22 03:15 279 0 gusting 4 17.2
2014-Oct-22 03:10 263 1 gusting 4 17.2
2014-Oct-22 03:05 237 3 gusting 3 17.2
2014-Oct-22 03:00 353 1 gusting 3 17.2
2014-Oct-22 02:55 356 1 gusting 5 17.8
2014-Oct-22 02:50 015 1 gusting 5 17.8
2014-Oct-22 02:45 045 3 gusting 5 17.8
2014-Oct-22 02:40 046 1 gusting 5 17.8
2014-Oct-22 02:35 050 0 gusting 6 17.8
2014-Oct-22 02:30 041 4 gusting 6 16.7
2014-Oct-22 02:25 320 0 gusting 2 16.7
2014-Oct-22 02:20 358 1 gusting 3 16.7
2014-Oct-22 02:15 021 1 gusting 3 16.7
2014-Oct-22 02:10 037 0 gusting 2 16.7
2014-Oct-22 02:05 033 1 gusting 2 16.7
2014-Oct-22 02:00 346 1 gusting 2 16.7
2014-Oct-22 01:55 096 0 gusting 3 16.7
2014-Oct-22 01:50 089 0 gusting 3 16.7
2014-Oct-22 01:45 072 3 gusting 3 16.7
2014-Oct-22 01:40 043 1 gusting 3 16.7
2014-Oct-22 01:35 16.7
2014-Oct-22 01:30 16.7
2014-Oct-22 01:25 16.7
2014-Oct-22 01:20 009 1 gusting 1 16.7
2014-Oct-22 01:15 001 0 gusting 1 16.7
2014-Oct-22 01:10 17.2
2014-Oct-22 01:05 17.2
2014-Oct-22 01:00 17.8
2014-Oct-22 00:55 089 1 gusting 3 17.8
2014-Oct-22 00:50 099 1 gusting 3 17.8
2014-Oct-22 00:45 093 0 gusting 4 18.3
2014-Oct-22 00:40 092 1 gusting 4 18.3
2014-Oct-22 00:35 142 0 gusting 3 18.9
2014-Oct-22 00:30 194 0 gusting 3 19.4
2014-Oct-22 00:25 189 2 gusting 3 19.4
2014-Oct-22 00:20 149 1 gusting 3 19.4
2014-Oct-22 00:15 132 1 gusting 3 19.4
2014-Oct-22 00:10 110 1 gusting 3 19.4
2014-Oct-22 00:05 20.6
2014-Oct-22 00:00 20.6
2014-Oct-21 23:55 279 0 gusting 4 20.6
2014-Oct-21 23:50 270 2 gusting 4 20.6
2014-Oct-21 23:45 270 3 gusting 6 20.6
2014-Oct-21 23:40 271 2 gusting 6 20.6
2014-Oct-21 23:35 278 4 gusting 6 20.6
2014-Oct-21 23:30 293 3 gusting 6 20.0
2014-Oct-21 23:25 271 4 gusting 6 20.0
2014-Oct-21 23:20 243 3 gusting 5 19.4
2014-Oct-21 23:15 254 2 gusting 3 19.4
2014-Oct-21 23:10 271 1 gusting 2 19.4
2014-Oct-21 23:05 282 1 gusting 2 19.4
2014-Oct-21 23:00 292 1 gusting 3 19.4
2014-Oct-21 22:55 19.4
2014-Oct-21 22:50 19.4
2014-Oct-21 22:45 20.0
2014-Oct-21 22:40 20.0
2014-Oct-21 22:35 273 1 gusting 2 20.0
2014-Oct-21 22:30 283 1 gusting 1 20.0
2014-Oct-21 22:25 20.0
2014-Oct-21 22:20 154 1 gusting 1 20.0
2014-Oct-21 22:15 121 0 gusting 1 20.0
2014-Oct-21 22:10 097 1 gusting 1 20.0
2014-Oct-21 22:05 085 0 gusting 3 20.0
2014-Oct-21 22:00 099 0 gusting 3 20.0
2014-Oct-21 21:55 100 2 gusting 4 20.0
2014-Oct-21 21:50 067 1 gusting 7 20.6
2014-Oct-21 21:45 21.1
2014-Oct-21 21:40 066 6 gusting 6 20.6
2014-Oct-21 21:35 060 4 gusting 6 20.6
2014-Oct-21 21:30 048 3 gusting 6 20.6
2014-Oct-21 21:25 20.6
2014-Oct-21 21:20 021 1 gusting 1 20.6
2014-Oct-21 21:15 21.1
2014-Oct-21 21:10 21.7
2014-Oct-21 21:05 22.2
2014-Oct-21 21:00 192 0 gusting 3 22.2
2014-Oct-21 20:55 224 1 gusting 3 22.2
2014-Oct-21 20:50 221 0 gusting 2 22.2
2014-Oct-21 20:45 240 0 gusting 4 22.2
2014-Oct-21 20:40 248 0 gusting 6 22.2
2014-Oct-21 20:35 229 3 gusting 6 22.2
2014-Oct-21 20:30 206 3 gusting 5 22.2
2014-Oct-21 20:25 214 2 gusting 3 21.1
2014-Oct-21 20:20 226 1 gusting 3 21.1
2014-Oct-21 20:15 228 2 gusting 3 21.1
2014-Oct-21 20:10 229 2 gusting 3 21.1
2014-Oct-21 20:05 219 0 gusting 1 21.1
2014-Oct-21 20:00 203 0 gusting 1 21.1
2014-Oct-21 19:55 21.7
2014-Oct-21 19:50 232 0 gusting 3 21.7
2014-Oct-21 19:45 257 0 gusting 3 21.7
2014-Oct-21 19:40 270 0 gusting 2 21.7
2014-Oct-21 19:35 248 0 gusting 1 21.7
2014-Oct-21 19:30 22.2
2014-Oct-21 19:25 22.2
2014-Oct-21 19:20 22.8
2014-Oct-21 19:15 22.8
2014-Oct-21 19:10 137 0 gusting 2 22.8
2014-Oct-21 19:05 158 1 gusting 2 22.8
2014-Oct-21 19:00 22.8
2014-Oct-21 18:55 186 0 gusting 2 23.3
2014-Oct-21 18:50 222 0 gusting 1 23.3
2014-Oct-21 18:45 227 0 gusting 1 23.9
2014-Oct-21 18:40 229 0 gusting 1 23.9
2014-Oct-21 18:35 253 0 gusting 2 23.9
2014-Oct-21 18:30 261 1 gusting 3 24.4
2014-Oct-21 18:25 284 1 gusting 4 24.4
2014-Oct-21 18:20 287 1 gusting 4 24.4
2014-Oct-21 18:15 273 0 gusting 3 24.4
2014-Oct-21 18:10 275 1 gusting 3 25.0
2014-Oct-21 18:05 277 1 gusting 3 24.4
2014-Oct-21 18:00 280 1 gusting 3 24.4